Temp
7 7 7 7 7 8 7 7 7 8 8 7 7 7 8 8 8 8 8 8 8 8 8 9 9 8 10 11 14 19 19 19 19 19 19 20 20 20 21 20 20 20 22 21 22 21 21
7 7 7 7 7 7 7 7 7 7 7 7 7 7 7 7 7 8 8 8 8 8 9 9 9 8 9 11 17 17 18 17 18 18 19 19 21 21 21 21 22 22 21 22 22 22 21
7 7 7 7 7 7 7 7 7 7 7 7 7 7 7 7 7 7 7 7 8 9 9 8 7 8 8 11 18 17 17 17 17 18 19 19 20 21 21 21 21 21 22 22 23 22 22
7 7 7 7 7 7 7 7 7 7 7 7 7 7 7 7 7 7 7 8 8 10 10 9 7 8 9 15 16 14 17 16 17 18 17 19 20 20 21 21 21 21 20 21 22 20 20
6 6 7 6 7 7 7 7 6 6 6 7 7 7 7 7 7 7 7 8 10 9 9 8 8 9 10 14 14 17 15 15 17 18 18 18 19 20 20 21 20 19 21 20 22 21 20
6 6 6 6 6 6 6 6 6 6 6 6 7 7 7 7 7 7 7 9 10 9 8 8 9 11 12 16 17 17 16 15 17 17 18 18 18 19 18 20 21 20 20 19 21 21 20
6 6 6 6 6 6 5 6 6 6 6 6 7 7 7 7 7 7 7 8 9 10 9 10 11 12 13 14 16 17 16 16 17 18 18 17 19 18 20 20 20 20 20 20 21 21 21
5 5 6 6 6 5 5 5 6 6 6 6 6 7 7 7 7 7 7 7 8 6 7 10 10 10 12 13 12 16 16 17 17 18 17 17 18 20 19 19 20 20 20 21 21 20 21
5 5 6 5 5 5 5 5 6 5 6 6 6 6 6 7 6 7 6 7 7 7 7 10 12 11 12 13 12 14 17 17 17 17 18 19 20 19 19 18 19 20 20 20 21 20 21
5 5 5 5 5 5 5 5 5 5 6 6 6 6 6 6 7 6 7 7 8 7 9 11 11 12 14 14 13 16 17 18 17 18 17 19 20 19 19 19 20 19 20 20 20 20 21
5 5 5 5 5 5 5 5 5 5 5 6 6 6 6 6 6 6 7 7 8 7 10 15 14 15 15 15 17 16 17 17 18 17 18 18 18 19 19 20 20 21 20 20 20 20 19
4 4 4 5 5 5 5 4 5 5 5 5 6 6 6 6 6 7 7 7 7 9 10 14 16 15 14 15 16 16 16 18 19 17 18 19 18 20 21 19 20 21 20 19 18 19 19
4 4 4 4 5 4 4 4 4 4 5 5 6 6 6 6 6 7 7 7 9 9 14 14 14 16 15 15 15 16 15 16 17 16 17 18 19 19 19 20 19 21 21 19 19 18 20
4 4 4 4 4 5 4 4 4 4 4 5 5 5 6 6 6 6 7 7 8 12 12 14 14 15 15 17 16 16 16 15 17 18 18 18 17 19 19 20 20 20 21 20 19 19 21
4 4 4 4 4 5 4 4 4 4 4 5 5 5 5 6 6 6 6 6 10 11 12 12 13 14 15 16 16 17 16 16 17 17 18 17 18 19 19 20 21 19 19 21 18 16 19
3 3 4 4 4 4 4 4 4 3 4 5 4 4 5 6 7 5 6 8 9 11 11 12 12 13 13 14 15 16 16 16 16 18 18 18 18 19 20 20 20 21 21 20 18 19 19
3 3 3 3 3 4 4 3 3 3 4 5 4 4 7 7 6 6 6 7 9 10 11 11 11 11 12 13 13 14 15 16 15 16 18 18 19 18 19 19 20 20 20 19 20 19 20
3 3 3 3 3 3 3 3 3 3 4 4 4 4 6 6 5 6 6 7 9 10 11 11 11 11 12 13 13 14 14 15 14 16 16 18 17 17 18 19 20 20 21 21 20 18 17
2 2 3 3 3 3 3 3 3 3 4 4 4 5 5 5 6 6 6 7 8 9 10 10 11 10 12 12 12 13 13 14 14 15 15 16 16 16 17 19 19 19 20 19 18 17 20
3 3 3 3 3 3 3 3 3 3 3 3 4 4 5 5 6 6 6 6 7 8 9 9 9 10 11 11 12 12 12 14 13 15 14 15 16 16 17 17 17 18 19 20 20 18 19
2 3 3 3 3 3 3 3 3 3 4 3 3 4 5 5 5 5 7 8 8 8 9 9 9 10 10 10 11 11 13 12 14 13 15 15 14 15 15 16 16 16 17 19 19 19 19
2 2 2 2 2 2 3 3 3 3 3 3 3 4 5 5 6 5 6 8 8 8 9 9 9 9 10 10 11 11 11 12 12 13 13 13 14 14 15 16 16 17 17 18 18 19 19
2 2 2 2 2 2 3 2 3 3 3 3 3 3 5 6 6 6 7 8 8 9 9 10 9 9 9 9 10 10 10 11 11 11 11 12 13 13 15 13 15 16 16 17 18 19 19
2 2 2 2 2 2 2 3 3 3 3 3 3 4 4 5 6 7 7 8 8 9 8 9 10 9 10 10 10 10 9 9 10 10 11 11 12 11 13 13 14 17 16 17 17 18 18
2 3 3 3 2 3 3 3 3 3 3 3 3 4 5 5 6 6 7 8 9 9 8 8 9 9 10 9 9 9 10 10 10 10 10 11 11 11 13 14 15 17 17 16 16 18 14
3 3 3 3 3 3 3 3 2 3 3 3 3 3 5 6 6 8 7 8 8 7 7 8 9 9 10 7 7 9 10 11 12 12 11 11 11 12 11 12 13 16 16 15 15 16 15
3 4 3 3 3 3 3 3 3 3 3 3 3 3 4 4 6 7 8 7 9 8 7 7 8 7 9 7 8 9 10 10 11 11 11 10 11 11 11 12 14 14 15 15 16 16 15
4 4 4 4 4 4 3 3 3 3 3 3 3 3 4 3 5 8 9 8 8 8 7 7 7 6 6 7 8 8 9 10 11 12 12 12 12 12 12 12 12 14 15 15 15 15 14
4 4 4 4 4 4 4 4 4 3 4 3 4 4 3 4 4 6 7 9 10 10 9 8 9 7 7 8 7 9 8 7 11 12 10 12 12 13 13 13 13 13 13 12 12 12 13
Height
840 839 837 835 834 833 833 832 830 830 828 827 824 822 819 815 811 812 810 807 804 799 797 795 793 786 781 784 769 759 757 759 759 760 761 760 765 766 768 767 769 771 763 763 759 761 762
837 837 835 832 833 832 830 831 829 828 826 825 823 820 818 815 810 805 806 805 801 797 794 791 791 785 787 786 759 757 756 758 758 758 759 759 759 759 762 762 763 758 761 759 757 755 758
835 833 833 832 831 831 829 828 828 827 825 822 821 821 817 815 809 801 800 799 796 791 788 786 786 781 786 766 756 757 755 756 755 756 757 756 758 758 758 761 756 757 763 759 753 753 755
831 832 832 830 829 828 827 827 825 825 823 819 818 816 815 814 806 801 794 794 791 785 780 778 779 776 774 753 752 750 751 751 752 754 756 755 757 757 757 755 758 760 766 768 752 756 756
830 830 829 828 826 825 824 824 823 822 820 817 814 812 813 811 805 798 790 788 784 779 775 774 774 772 769 755 751 744 744 746 746 751 754 755 755 756 758 761 765 768 765 768 758 751 754
828 827 827 825 824 822 821 820 820 820 817 813 811 810 811 808 802 797 789 785 778 778 775 778 771 769 759 755 748 743 741 743 744 748 754 755 756 757 761 757 761 762 766 767 762 755 754
825 825 824 822 820 818 817 818 817 818 815 811 808 809 807 806 801 796 789 782 783 781 777 771 766 755 750 755 749 741 741 741 743 747 751 752 755 751 746 746 750 753 759 760 754 751 754
822 821 820 818 817 814 814 813 814 815 811 810 806 808 804 803 800 797 793 792 795 798 779 766 758 760 749 751 757 741 741 743 744 744 746 754 746 741 748 749 748 751 754 755 749 748 751
817 816 815 814 813 812 812 809 811 810 807 807 803 806 804 801 798 797 795 795 795 793 785 751 744 744 738 743 744 734 740 739 740 744 740 736 731 736 743 750 751 750 752 755 753 752 745
812 812 810 809 808 808 808 807 807 805 804 804 802 803 802 799 800 798 796 795 793 791 779 748 739 734 730 735 737 723 732 736 738 735 739 737 731 735 737 742 742 750 743 747 754 756 755
806 805 804 803 804 805 803 802 802 801 800 802 799 801 800 799 798 798 797 794 791 791 777 729 729 724 724 730 722 719 722 729 729 731 734 732 731 734 738 733 738 735 736 744 750 756 757
800 799 798 798 799 799 798 799 796 796 797 798 797 798 798 796 796 796 794 792 790 787 767 732 724 725 728 727 722 719 720 721 719 728 729 723 721 722 718 728 728 730 737 745 754 757 763
794 793 793 793 793 793 792 793 794 794 792 794 794 794 794 794 794 793 793 791 787 781 742 735 732 725 722 720 720 718 721 723 720 733 734 726 723 718 718 727 731 728 735 754 761 764 752
787 786 786 786 787 787 787 787 789 791 789 790 790 790 789 790 791 792 793 793 785 751 748 735 733 725 722 711 713 713 718 723 716 713 720 727 735 719 712 716 723 727 728 740 753 754 743
781 780 779 780 781 781 781 782 785 786 785 786 786 785 784 784 787 789 793 790 766 758 750 749 736 728 721 714 715 709 715 719 712 712 717 723 721 709 710 708 711 728 733 720 742 754 749
773 773 773 773 773 774 776 777 779 781 782 783 783 782 777 779 782 786 784 771 768 757 756 753 748 739 735 727 722 713 714 715 712 705 704 711 719 705 702 707 710 711 714 732 739 743 749
765 766 766 766 766 768 769 772 774 776 779 781 782 779 769 771 777 781 771 770 765 757 760 757 754 749 743 737 731 725 720 716 715 709 702 706 707 713 706 710 712 716 717 719 719 730 729
757 758 758 759 760 761 763 766 769 771 774 778 779 776 767 768 775 771 766 765 760 756 755 755 752 750 745 738 733 727 725 721 718 710 709 704 713 720 711 702 701 704 706 708 719 732 735
748 748 749 751 752 754 756 759 763 765 770 774 772 768 766 768 764 764 763 762 758 756 753 753 752 753 747 744 740 733 731 722 720 714 717 711 714 723 718 708 706 707 705 708 717 723 718
738 739 741 742 744 746 749 752 756 759 764 770 768 762 761 761 757 758 755 759 758 755 755 756 757 753 750 749 741 737 735 727 724 719 716 713 716 716 718 718 717 714 707 703 704 722 718
729 730 731 733 735 737 741 745 749 753 757 764 758 754 753 750 753 753 747 746 749 750 750 752 754 753 750 751 747 740 732 731 725 724 719 719 725 721 719 716 717 716 711 705 708 705 710
718 719 721 723 725 728 732 736 740 745 749 755 750 748 749 745 744 748 747 739 740 746 744 750 752 749 748 749 743 741 741 736 734 730 728 728 724 726 721 715 712 711 705 703 703 704 705
706 707 708 710 713 717 721 726 730 735 742 742 743 744 745 736 740 738 734 733 734 738 743 742 747 749 750 747 746 744 744 742 740 743 740 735 731 729 721 725 715 715 708 704 701 700 701
691 692 693 695 699 703 708 713 718 723 729 735 733 737 739 733 734 731 731 733 733 734 739 742 741 746 745 745 743 738 740 739 739 739 737 737 733 735 725 726 724 701 700 699 701 699 699
675 675 676 679 683 688 693 699 705 711 716 721 726 728 729 728 726 730 727 727 729 733 736 740 741 747 746 746 746 737 733 731 729 730 733 733 735 733 726 719 715 697 699 702 704 701 708
662 663 664 664 666 673 679 685 690 697 704 711 715 721 722 721 713 720 726 723 724 734 741 739 741 745 744 753 750 740 733 725 720 719 724 731 732 731 734 724 720 703 698 701 703 707 705
651 652 653 654 656 660 665 671 677 684 692 700 703 712 720 716 709 711 713 719 721 727 733 735 739 743 742 748 744 739 732 728 722 721 720 730 732 731 729 721 711 703 700 700 704 706 699
640 640 641 644 647 651 655 660 666 673 680 688 695 701 709 713 708 703 703 707 714 718 726 731 739 742 745 743 741 739 737 726 723 716 712 717 720 720 721 723 722 703 703 706 704 701 701
626 626 628 631 636 641 647 653 659 665 669 680 686 693 703 709 706 703 702 701 701 706 717 723 720 727 731 734 737 730 733 738 721 716 720 715 711 710 712 709 707 707 708 710 708 705 701
Wind_Speed
12 12 12 11 12 13 14 15 15 16 17 17 17 18 18 17 18 22 25 26 28 27 25 23 22 21 11 4 10 12 12 6 11 14 7 6 7 6 7 6 7 6 9 5 10 7 6
11 12 12 12 13 13 14 15 16 16 16 17 19 19 19 20 20 22 25 29 30 30 29 23 20 15 3 6 6 8 6 5 11 14 7 6 7 6 4 5 7 6 7 9 7 9 3
13 13 14 14 14 15 16 16 17 16 16 17 18 20 21 22 22 22 27 30 33 33 32 26 14 2 4 17 10 8 8 5 9 8 4 9 4 4 6 3 4 1 6 7 8 4 4
13 15 15 15 15 15 15 16 19 19 19 18 19 20 21 24 24 26 27 33 35 33 28 18 9 7 8 16 18 20 18 22 16 12 7 4 5 3 3 2 2 3 1 5 1 5 1
17 15 15 15 14 15 15 17 20 18 18 17 18 20 23 24 25 26 28 34 36 17 13 8 8 8 10 9 8 15 17 11 14 15 10 3 4 4 3 4 2 0 6 6 6 4 3
18 19 18 17 17 18 18 17 19 20 20 17 18 20 22 24 25 25 29 36 15 2 6 4 9 3 8 4 7 4 5 9 2 9 4 4 2 4 4 10 11 8 5 4 5 1 2
19 19 20 17 17 16 17 18 19 20 21 19 18 18 20 23 23 24 28 14 6 2 5 8 8 4 2 10 14 3 3 5 3 5 10 5 8 15 19 14 5 7 5 4 5 5 3
20 20 19 18 18 17 17 16 18 19 18 18 16 18 20 23 21 21 12 3 5 4 12 15 22 17 30 5 8 10 6 5 6 10 10 5 19 14 8 8 11 6 6 9 10 2 8
20 21 21 19 18 17 17 15 18 19 17 16 14 17 19 21 18 10 8 2 11 14 5 14 12 10 12 17 18 24 5 2 7 9 18 19 5 15 14 8 11 11 13 7 10 6 3
21 23 23 20 17 18 18 18 18 17 16 15 16 17 17 19 8 7 7 2 18 10 5 7 4 6 8 9 10 28 17 9 6 14 8 14 8 13 12 16 14 15 12 8 7 4 4
24 21 19 19 20 20 20 18 19 17 16 16 15 17 17 13 10 3 7 17 16 1 6 1 3 5 7 11 4 4 22 13 19 7 7 9 10 12 13 11 14 11 9 11 7 6 3
23 21 21 21 21 21 18 18 17 16 16 17 17 18 17 14 6 10 11 13 2 2 7 6 1 1 6 9 5 2 8 4 7 4 3 9 3 10 19 7 18 8 5 4 3 2 5
24 25 23 23 21 18 16 18 18 18 16 17 17 16 14 12 3 1 5 5 2 5 6 5 6 5 6 6 6 6 10 16 9 12 12 6 8 2 4 6 7 5 8 3 4 5 5
27 26 22 22 20 21 20 19 17 19 17 17 18 17 16 14 12 11 1 1 7 4 6 8 8 12 4 3 6 8 9 12 11 3 9 10 6 11 5 6 9 18 13 6 8 6 4
26 24 22 20 20 22 20 18 17 17 17 17 18 18 11 17 12 12 3 4 3 5 4 9 15 3 4 5 4 3 7 3 9 8 7 9 9 3 5 5 8 6 10 6 5 2 1
28 27 27 28 27 22 18 19 16 16 16 15 11 8 13 17 14 12 7 9 6 3 5 5 3 6 6 8 10 5 5 8 4 9 3 6 3 5 11 2 3 5 9 5 0 7 8
28 27 26 26 23 20 19 18 16 17 16 13 6 3 6 14 19 4 5 6 5 12 7 3 3 5 5 5 5 6 5 5 11 8 6 3 0 1 6 7 12 7 8 2 4 3 8
29 28 27 27 26 24 19 18 17 18 16 9 3 4 5 22 6 2 3 7 6 4 2 4 2 4 3 5 5 6 7 6 10 13 3 3 2 3 4 2 4 4 8 10 5 5 1
30 30 27 27 27 25 21 19 19 20 15 5 3 3 8 13 6 10 3 5 5 5 4 0 1 2 2 3 4 4 5 7 13 10 6 5 3 2 4 3 2 5 5 4 2 1 12
29 31 30 29 28 27 23 21 21 22 19 15 3 3 4 6 6 11 8 7 6 5 4 4 3 2 3 3 2 4 4 6 9 6 10 3 2 1 4 3 3 2 3 9 11 4 5
32 32 32 31 29 27 25 24 23 25 23 13 4 4 4 4 11 11 14 12 13 8 7 3 4 11 6 5 4 5 6 5 8 9 5 5 2 4 5 4 3 3 8 9 9 11 10
31 32 32 30 29 28 28 28 29 29 26 17 3 4 4 6 4 16 12 13 14 11 8 4 7 2 7 7 6 4 5 4 3 7 7 8 1 1 2 4 2 6 8 6 6 4 7
40 39 38 38 37 35 33 33 33 32 28 11 12 6 3 6 6 7 5 12 15 12 4 11 5 6 9 11 7 10 9 9 10 7 5 4 1 1 2 4 5 1 2 1 1 1 3
44 44 43 43 41 39 38 38 37 37 36 26 6 6 5 9 9 11 10 12 13 18 12 8 11 12 1 4 9 7 7 10 11 11 9 5 2 2 1 4 2 2 1 4 3 1 4
43 39 43 46 45 43 42 42 40 39 39 33 18 8 5 7 10 11 13 14 12 7 15 14 9 3 2 1 3 5 2 2 7 11 14 12 4 2 2 5 4 8 2 3 3 3 9
35 34 33 28 40 42 40 40 40 39 39 36 29 27 4 7 14 13 11 15 11 9 6 9 4 7 5 3 2 3 2 2 1 3 6 11 9 3 3 3 6 4 2 3 6 2 3
28 28 29 29 26 33 37 39 39 40 40 39 16 35 13 3 3 14 11 7 7 8 3 4 5 5 6 4 3 3 2 2 2 1 3 5 4 10 2 4 4 5 4 4 3 3 9
32 32 31 30 28 28 25 29 33 33 40 38 30 36 26 2 4 10 11 9 8 9 5 5 4 2 3 5 3 3 3 3 1 2 3 6 7 4 4 4 5 2 2 3 6 5 6
36 37 31 31 33 29 28 28 26 24 30 38 11 33 37 5 3 6 9 15 28 21 7 9 5 4 5 3 4 3 3 1 4 2 1 2 4 3 6 4 1 1 1 4 6 8 7
Wind_Direction
319 321 325 331 329 324 323 326 327 326 324 326 327 326 327 328 328 327 328 329 328 326 330 327 328 340 6 342 252 272 293 315 177 197 207 166 174 161 194 187 154 211 252 206 245 249 244
311 315 318 326 319 315 323 325 325 324 329 328 327 330 328 328 326 329 325 322 321 320 320 319 310 337 41 288 252 270 293 266 203 205 211 183 209 198 188 189 189 202 241 253 279 271 237
307 309 310 311 309 315 320 320 320 322 321 325 325 324 326 325 328 333 329 324 319 315 313 304 284 336 244 242 266 260 273 246 212 210 223 216 216 172 161 177 205 193 275 301 259 262 230
302 298 301 301 302 306 306 308 317 317 315 315 317 322 324 322 328 330 330 322 320 318 303 286 222 132 248 269 277 271 256 249 238 251 232 217 201 194 216 181 66 164 137 262 200 168 284
303 309 292 301 299 301 299 303 309 312 317 320 321 322 321 324 328 329 328 326 321 318 313 207 159 112 270 305 265 281 237 225 223 211 225 290 171 196 166 176 194 136 238 230 303 203 146
291 288 296 287 290 294 301 301 307 307 313 321 323 325 322 326 330 330 329 327 325 61 57 166 123 118 258 291 283 265 214 190 158 140 169 186 184 196 177 181 214 191 202 230 242 100 177
288 291 286 284 288 297 301 301 301 304 306 318 325 324 327 329 331 332 335 344 10 310 0 271 284 268 295 333 285 247 166 154 152 157 187 192 202 209 198 202 165 148 170 207 241 231 267
285 281 282 282 292 294 288 296 295 300 306 312 321 325 332 330 330 331 343 37 60 325 299 268 253 254 253 224 292 279 235 195 186 196 165 158 227 212 182 183 196 186 211 255 294 259 215
278 281 281 285 288 288 290 293 290 293 303 309 317 321 327 332 329 333 340 353 353 348 272 288 240 232 236 190 235 252 201 234 210 186 192 205 198 182 182 186 190 214 212 224 247 333 257
279 277 275 277 277 285 284 288 289 294 299 301 313 315 325 334 321 340 319 283 330 337 291 274 220 255 197 159 232 235 212 211 226 204 186 224 219 186 192 205 190 221 207 210 242 308 277
278 272 281 278 282 283 279 283 287 295 298 299 306 306 315 329 295 277 296 318 328 249 322 316 182 181 158 177 313 186 197 193 226 183 171 212 186 187 202 216 193 236 165 198 224 234 299
280 282 278 273 277 276 281 289 292 293 298 295 297 297 307 316 270 280 306 322 313 222 249 309 77 115 136 229 274 86 180 211 200 161 261 215 197 189 220 173 190 183 135 88 81 158 236
274 273 269 271 269 269 276 285 288 289 293 293 291 297 299 285 275 225 328 339 189 227 322 315 345 314 291 239 225 189 182 196 182 178 202 206 216 201 144 169 173 188 142 167 210 203 241
273 274 267 269 263 270 282 279 280 287 288 290 287 297 287 271 264 238 290 102 224 234 261 334 327 310 268 201 237 170 162 194 231 188 174 189 216 203 189 182 194 196 193 175 209 209 224
273 277 274 271 271 273 268 269 276 285 286 285 293 296 279 271 243 204 157 199 231 220 331 332 320 340 327 345 321 165 163 207 219 196 185 197 232 168 200 163 153 169 202 193 102 52 165
271 269 270 268 264 257 264 271 272 280 281 283 297 295 252 253 228 166 224 218 217 266 10 348 300 9 335 340 358 357 188 7 323 211 211 196 200 183 209 158 214 177 160 183 127 219 238
270 268 269 269 270 255 260 265 269 271 270 282 284 259 238 205 182 199 227 197 213 277 286 287 327 319 321 354 326 348 16 64 20 334 200 148 46 103 131 193 187 184 206 183 165 191 231
268 267 264 263 265 259 254 256 261 261 259 270 242 242 205 174 204 203 227 171 188 246 196 252 293 248 283 325 321 0 2 11 13 339 62 210 106 216 222 148 144 223 217 201 211 188 192
269 265 260 262 260 255 248 251 252 251 245 212 221 241 225 198 224 219 172 198 206 219 190 304 273 41 337 312 318 5 326 310 8 19 11 331 204 225 332 316 94 200 199 170 131 118 226
270 270 263 261 260 253 247 249 248 245 244 223 218 236 204 204 230 232 202 203 209 201 243 251 303 310 324 329 315 297 315 317 350 354 334 271 60 171 196 71 319 277 227 215 204 181 212
267 262 263 260 255 252 248 247 244 242 241 221 212 210 194 198 223 219 200 184 191 178 198 204 227 224 221 263 274 268 288 341 331 10 23 21 55 317 312 293 45 314 282 257 226 236 231
275 269 262 257 256 251 248 245 245 241 240 224 227 188 186 253 239 205 204 207 200 190 172 199 220 146 187 220 226 303 7 6 309 356 15 356 148 258 270 311 308 305 311 269 234 235 241
271 268 263 259 255 251 247 244 243 236 228 224 207 201 251 234 220 214 193 194 207 178 225 208 191 249 247 262 265 264 258 249 258 296 324 313 211 234 242 322 301 223 200 353 2 253 262
270 264 258 253 248 245 243 240 238 234 226 221 193 153 209 237 225 220 220 204 200 203 192 230 220 235 266 334 318 272 240 241 241 241 211 254 302 196 237 329 265 246 172 223 234 218 11
270 266 259 252 246 241 239 237 236 234 229 219 208 209 190 233 223 234 215 201 209 197 208 206 186 191 189 267 294 304 301 208 226 222 203 203 215 249 224 199 309 308 72 102 91 341 37
268 265 261 265 245 239 238 236 233 230 227 221 216 201 226 212 218 201 212 209 194 190 201 226 182 226 194 210 242 232 266 291 306 157 187 183 208 252 171 206 213 234 222 218 154 280 11
277 267 261 253 252 240 237 236 234 232 226 216 210 206 210 253 217 183 196 188 180 160 183 148 198 203 181 176 240 203 242 272 286 331 140 153 188 220 174 239 279 261 296 316 224 345 331
275 268 265 255 246 235 234 231 229 228 223 209 209 194 197 175 241 202 188 167 163 174 169 161 109 149 151 178 199 189 195 237 248 233 181 171 179 187 198 230 263 244 357 8 342 316 289
281 268 261 252 240 235 227 219 218 223 210 204 198 192 195 206 287 240 241 212 186 178 166 172 179 147 161 155 196 193 204 196 194 229 128 225 193 190 201 202 280 47 16 25 358 304 313